This is the latest recevied weather packets stored in our database for station/object W4FXD. If no packets are shown the sender has not sent any weather packets the latest 10 day(s).
| Time | Temp. | Humidity | Pressure | Rain* | Wind** | Luminosity | Snow |
|---|---|---|---|---|---|---|---|
| 1777467955 | 17.78° C | 90% | 1013.3 hPa | 0 mm | - | 217 W/m² | - |
| 1777467651 | 17.78° C | 93% | 1013.4 hPa | 0 mm | - | 264 W/m² | - |
| 1777467346 | 17.78° C | 93% | 1013.2 hPa | 0 mm | - | 147 W/m² | - |
| 1777467042 | 17.22° C | 94% | 1013.2 hPa | 0 mm | - | 131 W/m² | - |
| 1777466740 | 17.22° C | 95% | 1013.3 hPa | 0 mm | - | 118 W/m² | - |
| 1777466438 | 17.22° C | 95% | 1013.3 hPa | 0 mm | - | 98 W/m² | - |
| 1777466133 | 17.22° C | 95% | 1013.1 hPa | 0 mm | - | 86 W/m² | - |
| 1777465830 | 17.22° C | 95% | 1013.3 hPa | 0 mm | - | 58 W/m² | - |
| 1777465526 | 17.22° C | 96% | 1013.2 hPa | 0 mm | - | 46 W/m² | - |
| 1777465220 | 17.22° C | 96% | 1013 hPa | 0 mm | - | 45 W/m² | - |
| 1777464915 | 17.22° C | 96% | 1013 hPa | 0 mm | - | 46 W/m² | - |
| 1777464610 | 17.22° C | 96% | 1013.3 hPa | 0 mm | - | 45 W/m² | - |
| 1777464307 | 17.22° C | 96% | 1013.4 hPa | 0 mm | - | 46 W/m² | - |
| 1777464002 | 17.22° C | 96% | 1013.3 hPa | 0 mm | - | 47 W/m² | - |
| 1777463697 | 17.22° C | 96% | 1013.1 hPa | 0 mm | - | 60 W/m² | - |
| 1777463392 | 17.22° C | 96% | 1013.5 hPa | 0 mm | - | 39 W/m² | - |
| 1777463089 | 16.67° C | 96% | 1013.3 hPa | 0 mm | - | 26 W/m² | - |
| 1777462785 | 17.22° C | 96% | 1013.3 hPa | 0 mm | - | 21 W/m² | - |
| 1777462480 | 17.22° C | 96% | 1013.1 hPa | 0 mm | - | 17 W/m² | - |
| 1777462177 | 17.22° C | 95% | 1013.3 hPa | 0 mm | - | 12 W/m² | - |
| 1777461873 | 17.22° C | 95% | 1013.2 hPa | 0 mm | - | 10 W/m² | - |
| 1777461570 | 17.22° C | 95% | 1012.9 hPa | 0 mm | - | 12 W/m² | - |
| 1777461266 | 17.22° C | 95% | 1012.8 hPa | 0 mm | - | 7 W/m² | - |
| 1777460961 | 17.22° C | 95% | 1013.1 hPa | 0 mm | - | 3 W/m² | - |
| 1777460657 | 17.22° C | 95% | 1013.2 hPa | 0 mm | - | 1 W/m² | - |
* Rain latest hour (hover to see other rain measurements)
** Current wind speed in m/s (hover to see current wind gust speed)